sat.trackr.live / text

‹ back to catalog

STARLINK-5308

NORAD 55300 · 2023-010AH

PAYLOAD ACTIVE UNKNOWN

§ Identity

Operator
Country
US
Launch date
2023-01-19
Launch site
AFWTR
Launch vehicle
Mass (kg)
RCS (m²)

Purposes: comms

External: N2YO · Heavens-Above · Gunter

§ Orbital elements

Epoch: 2026-05-25T03:09:53.142912Z

Period
96.10 min
Inclination
70.0010°
Eccentricity
0.0003890
Mean motion
14.98409888 rev/d
Perigee alt
569.1 km
Apogee alt
574.5 km
Semi-major
6,949.9 km
B*
3.3059e-5
RAAN
191.5511°
Arg perigee
266.7996°
Mean anomaly
93.2718°
Rev number
18,472

§ Raw data

STARLINK-53081 55300U 23010AH  26145.13186508  .00000302  00000+0  33059-4 0  99972 55300  70.0010 191.5511 0003890 266.7996  93.2718 14.98409888184722

JSON: /api/v1/satellites/55300 · /tle

For live sub-satellite position, see the globe view (requires WebGL).

§ Visibility from observer

Set your observer location to see the next 7 days of passes ≥ 10°. The values pass through the URL so the page stays shareable.

No JS? Fill the form by hand. The geolocation button needs JavaScript.